Champaign, IL

6:54 AM CST on November 17, 2019 (GMT -0600)
Univ Of Illinois-Willard

Weather History for KCMI - October, 2019

Change the Weather History Date:

Sunday, October 13, 2019

  Actual Average Record
Temperature  
Mean Temperature 52 °F 55 °F  
Max Temperature 66 °F 67 °F 80 °F (1996)
Min Temperature 37 °F 43 °F 27 °F (2006)
Degree Days  
Heating Degree Days 13 11  
Month to date heating degree days 81 120  
Since 1 July heating degree days 84 212  
Cooling Degree Days 0 1  
Month to date cooling degree days 28 14  
Year to date cooling degree days 1168 939  
Growing Degree Days 4 (Base 50)    
Moisture  
Dew Point 35 °F    
Average Humidity 53    
Maximum Humidity 79    
Minimum Humidity 26    
Precipitation  
Precipitation 0.00 in 0.11 in 0.60 in (1997)
Month to date precipitation 0.67 1.30  
Year to date precipitation 30.25 31.86  
Sea Level Pressure  
Sea Level Pressure 29.93 in    
Wind  
Wind Speed 12 mph (SW)    
Max Wind Speed 23 mph    
Max Gust Speed 30 mph    
Visibility 10 miles    
Events      
T = Trace of Precipitation, MM = Missing Value Source: NWS Daily Summary

Daily Weather History Graph

Daily Weather History Graph

Search for Another Location

Airport or City:

Astronomy

Oct. 13, 2019 Rise Set
Actual Time 7:01 AM CDT 6:16 PM CDT
Civil Twilight 6:34 AM CDT 6:44 PM CDT
Nautical Twilight 6:02 AM CDT 7:15 PM CDT
Astronomical Twilight 5:31 AM CDT 7:46 PM CDT
Moon 6:39 PM CDT (10/13) 6:35 AM CDT (10/13)
Length of Visible Light 12h 09m
Length of Day
11h 15m
Full, 100% of the Moon is Illuminated
Oct 13
Full
Oct 13
Full
Oct 21
Last Quarter
Oct 27
New
Nov 4
First Quarter

Hourly Weather History & Observations

Time (CDT) Temp. Windchill Dew Point Humidity Pressure Visibility Wind Dir Wind Speed Gust Speed Precip Events Conditions
12:53 AM 45.0 °F 37.6 °F 35.1 °F 68% 29.93 in 10.0 mi South 17.3 mph 26.5 mph N/A   Clear
1:53 AM 45.0 °F 37.9 °F 35.1 °F 68% 29.92 in 10.0 mi South 16.1 mph - N/A   Clear
2:53 AM 44.1 °F 38.1 °F 35.1 °F 71% 29.92 in 10.0 mi SSW 11.5 mph - N/A   Clear
3:53 AM 43.0 °F 37.2 °F 35.1 °F 74% 29.92 in 10.0 mi SSW 10.4 mph - N/A   Clear
4:53 AM 41.0 °F 35.2 °F 35.1 °F 79% 29.93 in 10.0 mi SSW 9.2 mph - N/A   Clear
5:53 AM 42.1 °F 36.1 °F 35.1 °F 76% 29.93 in 10.0 mi SSW 10.4 mph - N/A   Clear
6:53 AM 41.0 °F 34.7 °F 35.1 °F 79% 29.94 in 10.0 mi SSW 10.4 mph - N/A   Clear
7:53 AM 44.1 °F 37.7 °F 36.0 °F 73% 29.94 in 10.0 mi SSW 12.7 mph - N/A   Clear
8:53 AM 48.9 °F - 37.0 °F 64% 29.95 in 10.0 mi SW 19.6 mph 25.3 mph N/A   Clear
9:53 AM 52.0 °F - 37.9 °F 59% 29.95 in 10.0 mi WSW 12.7 mph - N/A   Clear
10:53 AM 55.9 °F - 37.9 °F 51% 29.95 in 10.0 mi WSW 12.7 mph 19.6 mph N/A   Clear
11:53 AM 59.0 °F - 36.0 °F 42% 29.94 in 10.0 mi WSW 12.7 mph - N/A   Clear
12:53 PM 63.0 °F - 30.0 °F 29% 29.91 in 10.0 mi WSW 13.8 mph 25.3 mph N/A   Clear
1:53 PM 64.9 °F - 30.9 °F 28% 29.89 in 10.0 mi SW 18.4 mph 25.3 mph N/A   Clear
2:53 PM 66.0 °F - 30.9 °F 27% 29.88 in 10.0 mi SW 18.4 mph 28.8 mph N/A   Clear
3:53 PM 66.0 °F - 32.0 °F 28% 29.86 in 10.0 mi SW 20.7 mph 27.6 mph N/A   Clear
4:53 PM 64.0 °F - 32.0 °F 30% 29.87 in 10.0 mi SW 20.7 mph 29.9 mph N/A   Clear
5:53 PM 61.0 °F - 33.1 °F 35% 29.88 in 10.0 mi WSW 12.7 mph - N/A   Clear
6:53 PM 52.0 °F - 34.0 °F 50% 29.91 in 10.0 mi WSW 6.9 mph - N/A   Clear
7:53 PM 46.9 °F - 36.0 °F 66% 29.94 in 10.0 mi West 5.8 mph - N/A   Clear
8:53 PM 46.0 °F 43.1 °F 36.0 °F 68% 29.95 in 10.0 mi West 5.8 mph - N/A   Clear
9:53 PM 46.0 °F 41.0 °F 35.1 °F 66% 29.97 in 10.0 mi NNW 10.4 mph - N/A   Clear
10:53 PM 44.1 °F 40.8 °F 35.1 °F 71% 29.99 in 10.0 mi North 5.8 mph - N/A   Clear
11:53 PM 41.0 °F 38.0 °F 34.0 °F 76% 30.00 in 10.0 mi NNE 4.6 mph - N/A   Clear